Content
SEND FEEDBACK

Daily
Averages
Monthly
Summary
United Kingdom

CRANBROOK, ENGLAND


Home > Europe > United Kingdom > England
Elevation: 305 feet     Latitude: 51 16N     Longitude: 000 24E

WEATHER
 
SELECT A DAY
Number of Records: 143,500;   Date Range: 7/1/96 - 12/24/14
 
SHARE

PRINT THIS DATA

[ ← Previous Day ]
WEATHER ALMANAC - OCTOBER 15, 2013
[ Next Day → ]
[ °C ]   °F
Weather ElementAverageHighLow
Temperature49.4 °F51.8 °F (12:50 pm)46.4 °F (7:50 am)
Dewpoint45.3 °F46.4 °F (8:50 am)44.6 °F (7:50 am)
Humidity85.7 %93 % (7:50 am)76 % (2:50 pm)
Barometer29.84 in29.92 in (8:20 pm)29.80 in (7:50 am)
Wind Speed6.7 mph9.2 mph (9:50 am)
Weather ElementAverage
Visibility5.2 mi
Wind DirectionWNW (295 °)

Weather ElementTotal
Precipitation---
Heating Degree Days15.9 (Base 65)
Averaged from 26 records on October 15, 2013
WEATHER CONDITIONS BREAKOUT
WIND DIRECTION BREAKOUT
WEATHER BY HOUR - OCTOBER 15, 2013
[ °C ]   °F
Local TimeTemperatureDewpointHumidityBarometerVisibilityWind DirectionWind SpeedGust SpeedPrecipitationEventsConditions
7:50 AM46.4 °F44.6 °F93 %29.80 in2.8 miWNW (290°)8.1 mphScattered Clouds
8:20 AM46.4 °F44.6 °F93 %29.80 in2.8 miWest (280°)6.9 mphScattered Clouds
8:50 AM48.2 °F46.4 °F93 %29.80 in3.7 miWest (280°)4.6 mphPartly Cloudy
9:20 AM48.2 °F44.6 °F87 %29.80 in3.7 miWest (260°)4.6 mphPartly Cloudy
9:50 AM48.2 °F44.6 °F87 %29.83 in3.7 miWest (270°)9.2 mphMostly Cloudy
10:20 AM48.2 °F44.6 °F87 %29.83 in3.7 miWest (260°)9.2 mphMostly Cloudy
10:50 AM48.2 °F44.6 °F87 %29.83 in5.6 miWest (270°)8.1 mphMostly Cloudy
11:20 AM50.0 °F44.6 °F82 %29.83 in5.6 miWNW (290°)6.9 mphScattered Clouds
11:50 AM50.0 °F44.6 °F82 %29.83 in5.6 miWest (280°)6.9 mphScattered Clouds
12:20 PM50.0 °F44.6 °F82 %29.83 in5.6 miWest (280°)8.1 mphScattered Clouds
12:50 PM51.8 °F46.4 °F82 %29.83 in5.6 miWNW (290°)9.2 mphScattered Clouds
1:20 PM50.0 °F44.6 °F82 %29.83 in5.6 miWNW (300°)8.1 mphMostly Cloudy
1:50 PM50.0 °F44.6 °F82 %29.83 in6.2 miWNW (300°)9.2 mphMostly Cloudy
2:20 PM51.8 °F46.4 °F82 %29.83 in6.2 miWNW (300°)8.1 mphMostly Cloudy
2:50 PM51.8 °F44.6 °F76 %29.83 in6.2 miWNW (300°)9.2 mphMostly Cloudy
3:20 PM50.0 °F44.6 °F82 %29.83 in6.2 miWNW (290°)6.9 mphScattered Clouds
3:50 PM51.8 °F46.4 °F82 %29.86 in6.2 miWNW (300°)6.9 mphScattered Clouds
4:20 PM51.8 °F46.4 °F82 %29.86 in6.2 miWNW (300°)6.9 mphPartly Cloudy
4:50 PM51.8 °F46.4 °F82 %29.86 in6.2 miWNW (300°)6.9 mphPartly Cloudy
5:20 PM51.8 °F46.4 °F82 %29.86 in6.2 miWNW (300°)6.9 mphPartly Cloudy
5:50 PM50.0 °F46.4 °F87 %29.86 inNW (320°)4.6 mphClear
6:20 PM50.0 °F46.4 °F87 %29.86 in4.3 miNW (320°)3.5 mph
6:50 PM46.4 °F44.6 °F93 %29.89 inWNW (290°)3.5 mphClear
7:20 PM46.4 °F44.6 °F93 %29.89 inNNW (340°)3.5 mphClear
7:50 PM48.2 °F46.4 °F93 %29.89 in6.2 miNW (320°)3.5 mphPartly Cloudy
8:20 PM48.2 °F44.6 °F87 %29.92 in6.2 miNNW (340°)4.6 mphPartly Cloudy
Hourly data recorded from EGKB, located miles away from Cranbrook, England







STORIES FROM OUR PARTNERS